Regional Weather Roundup
Issued by NWS

Home | Current Version | Previous Version | Text Only | Print | Product List | Glossary On
Versions: 1 2 3 4 5 6 7 8 9 10 11 12 13 14 15 16 17 18 19 20 21 22 23 24 25 26 27 28 29 30 31 32 33 34 35 36 37 38 39 40 41 42 43 44 45 46 47 48 49 50
000
ASUS43 KLSX 220557
RWRMO

WEATHER SUMMARY FOR MISSOURI
NATIONAL WEATHER SERVICE SPRINGFIELD MO
100 AM CDT SAT JUL 22 2017

NOTE: "FAIR" INDICATES FEW OR NO CLOUDS BELOW 12,000 FEET WITH NO
       SIGNIFICANT WEATHER AND/OR OBSTRUCTIONS TO VISIBILITY.
       CURRENT SKY AND/OR WEATHER CONDITIONS ARE NOT AVAILABLE FOR
       CHILLICOTHE AND FARMINGTON.

MOZ001>031-035>038-043-044-053-054-220700-
...NORTHERN AND WESTERN MISSOURI...

CITY           SKY/WX    TMP DP  RH WIND       PRES   REMARKS
KANSAS CTY INT CLEAR     85  71  63 S17G29    29.83S HX  90
6HR MIN TEMP:  85; 6HR MAX TEMP:  94;

LEE`S SUMMIT   CLEAR     84  72  67 S17G26    29.85F
6HR MIN TEMP:  84; 6HR MAX TEMP:  94;

ST JOSEPH      CLEAR     85  75  72 S15       29.79S HX  93
6HR MIN TEMP:  85; 6HR MAX TEMP:  93;

CHILLICOTHE      N/A     84  74  71 S12       29.81F HX  91
6HR MIN TEMP:  84; 6HR MAX TEMP:  92;


$$
MOZ066>068-077>081-088>096-101>105-220700-
...SOUTHWEST MISSOURI...

CITY           SKY/WX    TMP DP  RH WIND       PRES   REMARKS
SPRINGFIELD    CLEAR     78  71  79 S8        29.95F
6HR MIN TEMP:  78; 6HR MAX TEMP:  93;

JOPLIN         CLEAR     84  72  67 S15       29.93F
6HR MIN TEMP:  83; 6HR MAX TEMP:  95; 6HR PCP: TRACE;


$$
MOZ032>034-039>042-045>050-055>058-069>072-220700-
...CENTRAL MISSOURI...

CITY           SKY/WX    TMP DP  RH WIND       PRES   REMARKS
COLUMBIA       NOT AVBL
JEFFERSON CITY CLEAR     84  72  67 S7        29.87F
6HR MIN TEMP:  83; 6HR MAX TEMP:  97;

SEDALIA        CLEAR     84  73  69 S14       29.88F HX  90
6HR MIN TEMP:  82; 6HR MAX TEMP:  94;

WARRENSBURG    CLEAR     81  70  69 S8        29.86F

$$
MOZ051-052-059>065-220700-
...EAST CENTRAL MISSOURI...

CITY           SKY/WX    TMP DP  RH WIND       PRES   REMARKS
ST LOUIS INTL  CLEAR     90  72  55 SW13      29.87F HX  97
6HR MIN TEMP:  90; 6HR MAX TEMP: 100;


$$
MOZ072>076-082>087-097>100-106>115-220700-
...SOUTH CENTRAL AND SOUTHEAST MISSOURI...

CITY           SKY/WX    TMP DP  RH WIND       PRES   REMARKS
CAPE GIRARDEAU CLEAR     80  74  81 CALM      29.92F
6HR MIN TEMP:  80; 6HR MAX TEMP:  90;

POPLAR BLUFF   CLEAR     81  78  91 SW5       29.94F
6HR MIN TEMP:  81; 6HR MAX TEMP:  92;

WEST PLAINS    CLEAR     81  73  76 S6        29.99F
6HR MIN TEMP:  81; 6HR MAX TEMP:  91;


$$


USA.gov is the U.S. government's official web portal to all federal, state and local government web resources and services.